{"data":{"norad_id":57795,"epoch":"2026-05-25T03:11:35.066400Z","epoch_age_seconds":66603,"freshness":"FRESH","line1":"1 57795U 23135D   26145.13304475 -.00000021  00000+0  60912-4 0  9997","line2":"2 57795  49.9730 249.7850 0014225 180.9264 179.1624 14.23131479141344","mean_motion":14.23131479,"eccentricity":0.0014225,"inclination_deg":49.973,"raan_deg":249.785,"arg_perigee_deg":180.9264,"mean_anomaly_deg":179.1624,"bstar":6.0912e-5,"rev_number":14134,"period_min":101.18531008898,"perigee_km":804.54987731658,"apogee_km":825.01373131486,"semimajor_km":7192.9188043157,"source":"CELESTRAK","updated_at":"2026-05-25T13:38:00.271690Z"}}